| time (UTC) | temp F | wind direction | speed knots | gust knots | rain 1hr in | rain 24hr in | rain mn in | humidity % | barometer mb |
| 20260905024558 | 81 | 116 | 0.0 | 0.0 | 0.00 | 0.00 | 0.00 | 85 | 1012.5 |
| 20260905023056 | 81 | 113 | 0.0 | 0.0 | 0.00 | 0.00 | 0.00 | 84 | 1012.3 |
| 20260905021555 | 81 | 116 | 0.0 | 0.0 | 0.00 | 0.00 | 0.00 | 83 | 1012.2 |
| 20260905020107 | 82 | 115 | 0.0 | 0.0 | 0.00 | 0.00 | 0.00 | 82 | 1011.9 |
| 20260905014555 | 82 | 116 | 0.0 | 0.0 | 0.00 | 0.00 | 0.00 | 81 | 1011.8 |
| 20260905013058 | 83 | 115 | 0.0 | 0.9 | 0.00 | 0.00 | 0.00 | 80 | 1011.5 |
| 20260905011628 | 83 | 173 | 0.0 | 0.0 | 0.00 | 0.00 | 0.00 | 79 | 1011.4 |
| 20260905010052 | 83 | 176 | 0.0 | 0.0 | 0.00 | 0.00 | 0.00 | 78 | 1011.2 |
| 20260905004552 | 84 | 175 | 0.0 | 0.0 | 0.00 | 0.00 | 0.00 | 76 | 1011.0 |
| 20260905003053 | 85 | 174 | 0.0 | 0.0 | 0.00 | 0.00 | 0.00 | 74 | 1011.1 |
| 20260905001557 | 87 | 177 | 0.0 | 0.9 | 0.00 | 0.00 | 0.00 | 71 | 1011.0 |
| 20260905000050 | 87 | 172 | 0.0 | 3.5 | 0.00 | 0.00 | 0.00 | 71 | 1010.8 |
| 20260904234548 | 88 | 158 | 0.9 | 2.6 | 0.00 | 0.00 | 0.00 | 69 | 1010.9 |
| 20260904233047 | 89 | 161 | 0.0 | 4.3 | 0.00 | 0.00 | 0.00 | 66 | 1010.8 |
| 20260904231546 | 90 | 139 | 0.0 | 5.2 | 0.00 | 0.00 | 0.00 | 66 | 1011.1 |
| 20260904230045 | 91 | 198 | 1.7 | 7.0 | 0.00 | 0.00 | 0.00 | 65 | 1011.3 |
| 20260904224547 | 91 | 158 | 1.7 | 6.1 | 0.00 | 0.00 | 0.00 | 62 | 1011.2 |
| 20260904223042 | 92 | 147 | 1.7 | 5.2 | 0.00 | 0.00 | 0.00 | 62 | 1011.2 |
| 20260904221541 | 92 | 176 | 0.9 | 4.3 | 0.00 | 0.00 | 0.00 | 62 | 1011.3 |
| 20260904220039 | 91 | 150 | 2.6 | 7.0 | 0.00 | 0.00 | 0.00 | 61 | 1011.3 |
| 20260904214537 | 91 | 203 | 0.9 | 3.5 | 0.00 | 0.00 | 0.00 | 62 | 1011.2 |
| 20260904213038 | 91 | 136 | 1.7 | 7.0 | 0.00 | 0.00 | 0.00 | 61 | 1011.1 |
| 20260904211536 | 92 | 131 | 2.6 | 6.1 | 0.00 | 0.00 | 0.00 | 60 | 1011.1 |
| 20260904210035 | 91 | 197 | 3.5 | 7.0 | 0.00 | 0.00 | 0.00 | 61 | 1010.9 |
| 20260904204532 | 91 | 165 | 3.5 | 7.8 | 0.00 | 0.00 | 0.00 | 61 | 1011.2 |
| 20260904203030 | 90 | 119 | 2.6 | 5.2 | 0.00 | 0.00 | 0.00 | 61 | 1011.6 |
| 20260904201529 | 90 | 158 | 1.7 | 5.2 | 0.00 | 0.00 | 0.00 | 62 | 1011.8 |
| 20260904200029 | 90 | 145 | 3.5 | 6.1 | 0.00 | 0.00 | 0.00 | 60 | 1012.1 |
| 20260904194526 | 89 | 191 | 1.7 | 6.1 | 0.00 | 0.00 | 0.00 | 61 | 1012.3 |
| 20260904193027 | 89 | 100 | 0.9 | 7.0 | 0.00 | 0.00 | 0.00 | 63 | 1012.6 |
| 20260904191524 | 89 | 110 | 1.7 | 7.0 | 0.00 | 0.00 | 0.00 | 62 | 1012.7 |
| 20260904190022 | 89 | 144 | 2.6 | 5.2 | 0.00 | 0.00 | 0.00 | 61 | 1012.7 |
| 20260904184524 | 88 | 87 | 1.7 | 7.8 | 0.00 | 0.00 | 0.00 | 61 | 1013.1 |
| 20260904183019 | 88 | 75 | 0.9 | 6.1 | 0.00 | 0.00 | 0.00 | 62 | 1013.2 |
| 20260904181539 | 87 | 91 | 0.9 | 3.5 | 0.00 | 0.00 | 0.00 | 64 | 1013.3 |
| 20260904180014 | 86 | 72 | 0.9 | 7.0 | 0.00 | 0.00 | 0.00 | 64 | 1013.5 |
| 20260904174511 | 86 | 59 | 0.9 | 3.5 | 0.00 | 0.00 | 0.00 | 64 | 1014.0 |
| 20260904173017 | 85 | 330 | 0.9 | 7.0 | 0.00 | 0.00 | 0.00 | 65 | 1014.6 |
| 20260904171507 | 84 | 80 | 0.0 | 7.0 | 0.00 | 0.00 | 0.00 | 68 | 1015.1 |
| 20260904170005 | 84 | 89 | 0.0 | 5.2 | 0.00 | 0.00 | 0.00 | 69 | 1015.5 |
| 20260904164505 | 84 | 55 | 0.0 | 3.5 | 0.00 | 0.00 | 0.00 | 71 | 1015.3 |
| 20260904163004 | 82 | 26 | 2.6 | 10.4 | 0.00 | 0.00 | 0.00 | 72 | 1015.4 |
| 20260904161504 | 83 | 23 | 3.5 | 11.3 | 0.00 | 0.00 | 0.00 | 72 | 1015.4 |
| 20260904154557 | 83 | 326 | 0.9 | 8.7 | 0.00 | 0.00 | 0.00 | 75 | 1014.9 |
| 20260904153055 | 83 | 75 | 0.9 | 4.3 | 0.00 | 0.00 | 0.00 | 78 | 1014.4 |
| 20260904151551 | 82 | 37 | 0.9 | 8.7 | 0.00 | 0.00 | 0.00 | 78 | 1014.2 |
| 20260904150050 | 83 | 334 | 0.0 | 7.8 | 0.00 | 0.00 | 0.00 | 78 | 1014.1 |
| 20260904144552 | 82 | 58 | 0.0 | 6.1 | 0.00 | 0.00 | 0.00 | 78 | 1013.7 |
| 20260904143050 | 82 | 19 | 0.0 | 4.3 | 0.00 | 0.00 | 0.00 | 80 | 1013.9 |
| 20260904141550 | 82 | 326 | 0.0 | 2.6 | 0.00 | 0.00 | 0.00 | 78 | 1013.8 |
| 20260904140046 | 82 | 27 | 0.9 | 3.5 | 0.00 | 0.00 | 0.00 | 77 | 1013.7 |
| 20260904134546 | 81 | 33 | 0.0 | 0.9 | 0.00 | 0.00 | 0.00 | 79 | 1013.4 |
| 20260904133037 | 80 | 340 | 0.0 | 0.9 | 0.00 | 0.00 | 0.00 | 78 | 1013.3 |
| 20260904131533 | 79 | 338 | 0.0 | 2.6 | 0.00 | 0.00 | 0.00 | 82 | 1013.4 |
| 20260904130029 | 78 | 352 | 0.0 | 1.7 | 0.00 | 0.00 | 0.00 | 85 | 1013.2 |
| 20260904124526 | 77 | 48 | 0.0 | 0.9 | 0.00 | 0.00 | 0.00 | 87 | 1012.9 |
| 20260904123031 | 76 | 143 | 0.0 | 0.0 | 0.00 | 0.00 | 0.00 | 87 | 1012.5 |
| 20260904121524 | 75 | 143 | 0.0 | 0.9 | 0.00 | 0.00 | 0.00 | 87 | 1012.2 |
| 20260904120031 | 75 | 131 | 0.0 | 0.0 | 0.00 | 0.00 | 0.00 | 87 | 1012.0 |
| 20260904114522 | 76 | 133 | 0.0 | 0.0 | 0.00 | 0.00 | 0.00 | 86 | 1011.8 |
| 20260904113021 | 76 | 135 | 0.0 | 1.7 | 0.00 | 0.00 | 0.00 | 84 | 1011.7 |
| 20260904111521 | 77 | 215 | 0.0 | 3.5 | 0.00 | 0.00 | 0.00 | 84 | 1011.5 |
| 20260904110020 | 77 | 138 | 0.0 | 0.9 | 0.00 | 0.00 | 0.00 | 83 | 1011.5 |
| 20260904104520 | 77 | 119 | 0.9 | 3.5 | 0.00 | 0.00 | 0.00 | 83 | 1011.2 |
| 20260904103024 | 77 | 252 | 0.0 | 5.2 | 0.00 | 0.00 | 0.00 | 83 | 1011.2 |
| 20260904101518 | 77 | 138 | 0.9 | 3.5 | 0.00 | 0.00 | 0.00 | 85 | 1011.1 |
| 20260904100027 | 77 | 148 | 0.9 | 3.5 | 0.00 | 0.00 | 0.00 | 87 | 1011.2 |
| 20260904094513 | 76 | 142 | 1.7 | 4.3 | 0.00 | 0.00 | 0.00 | 90 | 1011.1 |
| 20260904093013 | 75 | 150 | 0.0 | 0.9 | 0.00 | 0.00 | 0.00 | 93 | 1011.6 |
| 20260904091512 | 75 | 139 | 0.0 | 0.9 | 0.00 | 0.00 | 0.00 | 94 | 1011.9 |
| 20260904090010 | 75 | 118 | 0.0 | 0.0 | 0.00 | 0.00 | 0.00 | 94 | 1012.1 |
| 20260904084510 | 75 | 119 | 0.0 | 0.0 | 0.00 | 0.00 | 0.00 | 94 | 1012.1 |
| 20260904083015 | 75 | 117 | 0.0 | 0.0 | 0.00 | 0.00 | 0.00 | 94 | 1012.1 |
| 20260904081508 | 75 | 118 | 0.0 | 0.0 | 0.00 | 0.00 | 0.00 | 93 | 1012.1 |
| 20260904080006 | 75 | 118 | 0.0 | 0.0 | 0.00 | 0.00 | 0.00 | 93 | 1011.7 |
| 20260904074508 | 75 | 119 | 0.0 | 0.0 | 0.00 | 0.00 | 0.00 | 93 | 1011.6 |
| 20260904073005 | 76 | 117 | 0.0 | 0.0 | 0.00 | 0.00 | 0.00 | 93 | 1011.3 |
| 20260904071503 | 76 | 118 | 0.0 | 0.9 | 0.00 | 0.00 | 0.00 | 94 | 1011.3 |
| 20260904070101 | 76 | 25 | 0.0 | 0.0 | 0.00 | 0.00 | 0.00 | 94 | 1011.4 |
| 20260904064558 | 76 | 26 | 0.0 | 0.0 | 0.00 | 0.00 | 0.00 | 94 | 1011.7 |
| 20260904063054 | 76 | 26 | 0.0 | 0.0 | 0.00 | 0.00 | 0.00 | 94 | 1012.2 |
| 20260904061553 | 76 | 26 | 0.0 | 0.0 | 0.00 | 0.00 | 0.00 | 94 | 1012.5 |
| 20260904060052 | 76 | 26 | 0.0 | 0.0 | 0.00 | 0.00 | 0.00 | 94 | 1012.5 |
| 20260904054549 | 77 | 27 | 0.0 | 0.0 | 0.00 | 0.00 | 0.00 | 93 | 1012.7 |
| 20260904053047 | 77 | 28 | 0.0 | 0.0 | 0.00 | 0.00 | 0.00 | 92 | 1012.7 |
| 20260904051545 | 77 | 27 | 0.0 | 0.0 | 0.00 | 0.00 | 0.00 | 92 | 1012.7 |
| 20260904050046 | 78 | 27 | 0.0 | 0.0 | 0.00 | 0.00 | 0.00 | 91 | 1012.6 |
| 20260904044542 | 78 | 28 | 0.0 | 0.0 | 0.00 | 0.00 | 0.00 | 91 | 1012.5 |
| 20260904043041 | 78 | 27 | 0.0 | 0.0 | 0.00 | 0.00 | 0.00 | 90 | 1012.5 |
| 20260904041541 | 79 | 25 | 0.0 | 0.0 | 0.00 | 0.00 | 0.00 | 89 | 1012.5 |
| 20260904040039 | 79 | 26 | 0.0 | 0.0 | 0.00 | 0.00 | 0.00 | 88 | 1012.5 |
| 20260904034538 | 80 | 25 | 0.0 | 0.0 | 0.00 | 0.00 | 0.00 | 87 | 1012.6 |
| 20260904033039 | 80 | 27 | 0.0 | 0.0 | 0.00 | 0.00 | 0.00 | 86 | 1012.6 |
| 20260904031538 | 81 | 29 | 0.0 | 0.0 | 0.00 | 0.00 | 0.00 | 84 | 1012.5 |
| 20260904030037 | 81 | 27 | 0.0 | 0.0 | 0.00 | 0.00 | 0.00 | 83 | 1012.8 |